FW7051 Weather Reports


time (UTC)temp
F
wind
direction
speed
knots
gust
knots
rain 1hr
in
rain 24hr
in
rain mn
in
humidity
%
barometer
mb
20260504192014 82 213 6.1 13.0 0.00 0.00 0.00 44 1006.0
20260504191527 82 140 7.0 13.9 0.00 0.00 0.00 42 1006.0
20260504191015 81 185 6.1 13.9 0.00 0.00 0.00 42 1006.1
20260504190515 82 263 6.1 13.9 0.00 0.00 0.00 43 1006.3
20260504190032 82 221 3.5 14.8 0.00 0.00 0.00 47 1006.3
20260504185515 81 281 4.3 14.8 0.00 0.00 0.00 42 1006.3
20260504185018 81 242 6.1 15.6 0.00 0.00 0.00 43 1006.4
20260504184534 81 169 4.3 15.6 0.00 0.00 0.00 43 1006.2
20260504184015 82 244 7.0 15.6 0.00 0.00 0.00 42 1006.4
20260504183516 82 258 4.3 13.9 0.00 0.00 0.00 41 1006.1
20260504183030 82 290 2.6 11.3 0.00 0.00 0.00 43 1006.1
20260504182515 81 263 5.2 13.0 0.00 0.00 0.00 44 1006.1
20260504182015 81 290 5.2 13.0 0.00 0.00 0.00 44 1006.1
20260504181536 81 271 3.5 13.0 0.00 0.00 0.00 45 1006.2
20260504181018 81 207 5.2 11.3 0.00 0.00 0.00 44 1006.4
20260504180514 81 336 4.3 11.3 0.00 0.00 0.00 45 1006.3
20260504180027 80 304 4.3 15.6 0.00 0.00 0.00 47 1006.3
20260504175515 80 198 5.2 15.6 0.00 0.00 0.00 47 1006.5
20260504175015 80 288 5.2 12.2 0.00 0.00 0.00 48 1006.6
20260504174530 79 173 6.1 12.2 0.00 0.00 0.00 46 1006.6
20260504174015 79 162 2.6 11.3 0.00 0.00 0.00 49 1006.7
20260504173515 79 127 2.6 11.3 0.00 0.00 0.00 48 1006.8
20260504173031 79 171 5.2 11.3 0.00 0.00 0.00 48 1006.9
20260504172514 79 241 3.5 11.3 0.00 0.00 0.00 49 1007.1
20260504172016 79 304 5.2 11.3 0.00 0.00 0.00 50 1007.3
20260504171532 78 178 3.5 9.6 0.00 0.00 0.00 51 1007.3
20260504171014 78 117 2.6 8.7 0.00 0.00 0.00 53 1007.5
20260504170515 77 202 3.5 7.8 0.00 0.00 0.00 53 1007.7
20260504151015 75 257 2.6 7.8 0.00 0.00 0.00 56 1008.5
20260504150514 75 265 2.6 7.8 0.00 0.00 0.00 56 1008.5
20260504141011 70 173 1.7 7.8 0.00 0.00 0.00 65 1008.9
20260504140515 69 173 3.5 7.8 0.00 0.00 0.00 66 1009.1
20260504130517 62 22 0.0 2.6 0.00 0.00 0.00 81 1010.2
20260504110514 56 0 0.0 0.0 0.00 0.00 0.00 83 1009.8
20260504100514 57 0 0.0 2.6 0.00 0.00 0.00 81 1009.7
20260504081535 63 0 0.0 3.5 0.00 0.00 0.00 67 1009.3
20260504081015 64 227 0.9 3.5 0.00 0.00 0.00 67 1009.3
20260504080514 64 0 0.0 3.5 0.00 0.00 0.00 66 1009.3
20260504050516 65 242 0.9 7.8 0.00 0.00 0.00 63 1010.2
20260504045516 65 290 1.7 8.7 0.00 0.00 0.00 61 1010.5
20260504045016 65 279 3.5 8.7 0.00 0.00 0.00 61 1010.6
20260504044533 65 194 2.6 10.4 0.00 0.00 0.00 61 1010.7
20260504044016 65 297 2.6 11.3 0.00 0.00 0.00 62 1010.7
20260504043516 65 288 3.5 11.3 0.00 0.00 0.00 62 1010.8
20260504043032 65 280 3.5 11.3 0.00 0.00 0.00 62 1010.8
20260504042517 64 261 2.6 9.6 0.00 0.00 0.00 62 1010.9
20260504042015 64 265 3.5 9.6 0.00 0.00 0.00 62 1011.2
20260504041532 64 277 1.7 8.7 0.00 0.00 0.00 63 1011.2
20260504041015 64 284 1.7 7.8 0.00 0.00 0.00 63 1011.4
20260504040515 63 297 1.7 7.0 0.00 0.00 0.00 63 1011.5
20260504040038 63 318 0.9 8.7 0.00 0.00 0.00 65 1011.6
20260504035520 63 284 2.6 8.7 0.00 0.00 0.00 64 1011.7
20260504035015 63 267 1.7 7.0 0.00 0.00 0.00 64 1011.6
20260504034535 62 270 0.9 6.1 0.00 0.00 0.00 65 1011.5
20260504034015 62 250 0.0 3.5 0.00 0.00 0.00 65 1011.6
20260504033516 62 0 0.0 3.5 0.00 0.00 0.00 65 1011.6
20260504033045 63 251 0.0 3.5 0.00 0.00 0.00 64 1011.7
20260504032516 63 0 0.0 2.6 0.00 0.00 0.00 64 1011.6
20260504032016 63 0 0.0 2.6 0.00 0.00 0.00 64 1011.6
20260504031532 63 228 0.0 3.5 0.00 0.00 0.00 63 1011.7
20260504031015 63 0 0.0 3.5 0.00 0.00 0.00 62 1011.6
20260504030515 63 229 0.9 3.5 0.00 0.00 0.00 62 1011.6
20260504030034 63 0 0.9 4.3 0.00 0.00 0.00 62 1011.6
20260504025516 62 230 0.9 4.3 0.00 0.00 0.00 62 1011.6
20260504025019 62 231 0.9 4.3 0.00 0.00 0.00 62 1011.5
20260504024544 62 279 0.0 6.1 0.00 0.00 0.00 62 1011.5
20260504024017 63 0 0.0 6.1 0.00 0.00 0.00 62 1011.5
20260504023516 63 0 0.0 2.6 0.00 0.00 0.00 61 1011.5
20260504023033 63 0 0.0 2.6 0.00 0.00 0.00 60 1011.5
20260504022516 64 0 0.0 2.6 0.00 0.00 0.00 61 1011.5
20260504022017 64 0 0.0 2.6 0.00 0.00 0.00 59 1011.4
20260504021531 65 303 0.0 1.7 0.00 0.00 0.00 58 1011.4
20260504021015 65 0 0.0 0.9 0.00 0.00 0.00 56 1011.5
20260504020515 66 0 0.0 0.9 0.00 0.00 0.00 56 1011.3
20260504020032 66 0 0.0 0.0 0.00 0.00 0.00 56 1011.3
20260504015516 67 0 0.0 1.7 0.00 0.00 0.00 56 1011.3
20260504015016 67 0 0.0 2.6 0.00 0.00 0.00 54 1011.3
20260504014532 67 0 0.0 2.6 0.00 0.00 0.00 51 1011.2
20260504014018 68 304 0.0 2.6 0.00 0.00 0.00 50 1011.3
20260504013516 68 0 0.0 1.7 0.00 0.00 0.00 50 1011.2
20260504013043 68 0 0.0 3.5 0.00 0.00 0.00 50 1011.2
20260504012516 68 302 0.0 3.5 0.00 0.00 0.00 49 1011.1
20260504012017 68 0 0.9 3.5 0.00 0.00 0.00 49 1011.1
20260504011530 69 303 0.0 3.5 0.00 0.00 0.00 49 1010.9
20260504011015 69 315 0.0 2.6 0.00 0.00 0.00 48 1011.0
20260504010519 69 0 0.9 3.5 0.00 0.00 0.00 48 1010.9
20260504010030 70 0 0.0 3.5 0.00 0.00 0.00 47 1010.9
20260504005516 70 0 0.0 6.1 0.00 0.00 0.00 47 1010.9
20260504005016 70 210 1.7 6.1 0.00 0.00 0.00 46 1010.9
20260504004541 70 0 0.9 6.1 0.00 0.00 0.00 46 1010.9
20260504004016 71 216 0.9 6.1 0.00 0.00 0.00 46 1010.9
20260504003515 71 257 0.9 2.6 0.00 0.00 0.00 46 1010.8
20260504003033 71 211 0.9 4.3 0.00 0.00 0.00 45 1010.9
20260504002515 71 0 0.9 7.0 0.00 0.00 0.00 46 1010.8
20260504002017 71 234 1.7 7.0 0.00 0.00 0.00 45 1010.9
20260504001534 72 238 1.7 6.1 0.00 0.00 0.00 44 1010.9
20260504001017 72 223 0.0 7.0 0.00 0.00 0.00 44 1010.9
20260504000519 72 207 1.7 7.0 0.00 0.00 0.00 44 1010.8
20260504000034 72 271 2.6 7.8 0.00 0.00 0.00 44 1010.9
20260503235516 72 286 1.7 9.6 0.00 0.00 0.00 44 1010.9
20260503235017 73 295 0.9 9.6 0.00 0.00 0.00 43 1011.1
20260503234532 73 274 3.5 9.6 0.00 0.00 0.00 42 1011.2
20260503234016 73 235 1.7 10.4 0.00 0.00 0.00 43 1011.2
20260503233516 73 290 2.6 10.4 0.00 0.00 0.00 42 1011.2
20260503233034 73 227 3.5 10.4 0.00 0.00 0.00 42 1011.2
20260503232516 73 255 2.6 9.6 0.00 0.00 0.00 42 1011.3
20260503232017 73 292 3.5 10.4 0.00 0.00 0.00 42 1011.3
20260503231534 73 213 5.2 10.4 0.00 0.00 0.00 41 1011.3
20260503231016 73 185 4.3 10.4 0.00 0.00 0.00 41 1011.3
20260503230515 74 302 3.5 9.6 0.00 0.00 0.00 41 1011.3
20260503230032 74 202 3.5 9.6 0.00 0.00 0.00 41 1011.3
20260503225516 74 184 3.5 13.0 0.00 0.00 0.00 42 1011.3
20260503225015 74 160 4.3 13.0 0.00 0.00 0.00 41 1011.4
20260503224531 74 288 5.2 10.4 0.00 0.00 0.00 40 1011.3
20260503224016 74 250 5.2 12.2 0.00 0.00 0.00 41 1011.3
20260503223516 74 257 5.2 12.2 0.00 0.00 0.00 41 1011.3
20260503223035 75 309 4.3 10.4 0.00 0.00 0.00 40 1011.3
20260503222515 75 281 2.6 9.6 0.00 0.00 0.00 40 1011.3
20260503222016 75 265 2.6 13.0 0.00 0.00 0.00 40 1011.3
20260503221536 75 170 3.5 13.0 0.00 0.00 0.00 41 1011.4
20260503221017 75 270 6.1 12.2 0.00 0.00 0.00 39 1011.4
20260503220515 75 180 4.3 10.4 0.00 0.00 0.00 40 1011.6
20260503220034 75 226 4.3 10.4 0.00 0.00 0.00 40 1011.6
20260503215516 75 227 4.3 12.2 0.00 0.00 0.00 39 1011.6
20260503215014 75 204 4.3 13.9 0.00 0.00 0.00 40 1011.7
20260503214532 75 236 4.3 13.9 0.00 0.00 0.00 40 1011.7
20260503214016 75 242 5.2 13.0 0.00 0.00 0.00 41 1011.9
20260503213519 75 269 6.1 13.0 0.00 0.00 0.00 40 1011.8
20260503213032 75 259 5.2 13.0 0.00 0.00 0.00 40 1011.8
20260503212516 75 292 3.5 13.0 0.00 0.00 0.00 41 1012.0
20260503212016 74 165 5.2 13.0 0.00 0.00 0.00 39 1012.0
20260503211538 75 150 7.0 13.0 0.00 0.00 0.00 39 1012.1
20260503211016 75 318 6.1 13.0 0.00 0.00 0.00 40 1012.3
20260503210515 75 186 3.5 10.4 0.00 0.00 0.00 40 1012.3
20260503210034 75 131 4.3 12.2 0.00 0.00 0.00 42 1012.4
20260503205522 74 203 4.3 16.5 0.00 0.00 0.00 40 1012.6
20260503205016 74 235 5.2 16.5 0.00 0.00 0.00 40 1012.7
20260503204532 75 178 4.3 10.4 0.00 0.00 0.00 40 1012.7
20260503204012 75 279 4.3 13.9 0.00 0.00 0.00 41 1013.0
20260503203516 74 209 3.5 13.9 0.00 0.00 0.00 43 1013.0
20260503203030 74 194 5.2 13.9 0.00 0.00 0.00 40 1013.1
20260503202516 74 302 4.3 12.2 0.00 0.00 0.00 43 1013.2
20260503202017 74 255 2.6 10.4 0.00 0.00 0.00 42 1013.5
20260503201534 73 214 2.6 12.2 0.00 0.00 0.00 42 1013.6
20260503201015 73 198 4.3 13.0 0.00 0.00 0.00 40 1013.8
20260503200515 74 250 2.6 13.0 0.00 0.00 0.00 41 1014.0
20260503200034 73 273 3.5 9.6 0.00 0.00 0.00 43 1014.1
20260503195517 73 223 3.5 9.6 0.00 0.00 0.00 42 1014.2
20260503195017 73 275 4.3 11.3 0.00 0.00 0.00 41 1014.5
20260503194540 73 218 2.6 12.2 0.00 0.00 0.00 42 1014.7
20260503194015 72 266 5.2 12.2 0.00 0.00 0.00 42 1014.7
20260503193516 72 176 5.2 12.2 0.00 0.00 0.00 42 1014.9
20260503193040 72 219 4.3 10.4 0.00 0.00 0.00 41 1015.1
20260503192514 72 227 3.5 10.4 0.00 0.00 0.00 42 1015.2